Wind_Speed
33 33 33 33 33 32 32 31 30 30 28 28 27 29 31 31 30 31 30 28 27 27 26 25 24 24 23 22 23 22 21 20 19 19 19 19 19 18 17 15 14 12 10
34 34 33 33 33 33 33 31 31 30 29 28 28 29 29 30 31 31 31 30 28 27 28 27 26 26 25 24 24 24 23 22 21 21 21 21 21 20 19 18 17 15 13
35 34 33 33 34 34 34 33 32 31 30 30 30 30 30 29 30 31 31 30 29 28 28 28 27 27 27 27 26 25 25 24 24 23 22 22 22 22 22 20 19 17 16
36 35 35 34 34 34 33 33 33 33 32 30 30 30 30 29 28 31 32 31 31 29 29 29 28 28 28 28 27 26 26 25 25 24 24 24 23 23 23 22 21 20 19
37 36 36 35 34 34 34 33 33 32 31 31 30 30 30 31 29 31 31 32 32 31 31 30 30 30 29 29 28 27 27 26 26 25 25 25 24 24 24 25 24 23 22
37 37 36 35 35 34 34 33 33 33 32 31 30 29 29 30 31 31 32 32 33 33 33 32 32 31 31 30 30 29 28 28 27 26 25 26 25 25 25 26 26 25 25
37 37 37 37 36 35 35 34 34 33 33 32 31 30 28 28 30 32 32 33 34 35 34 34 34 34 33 32 32 31 30 29 27 27 26 26 26 27 26 26 27 28 27
36 36 36 36 36 36 36 35 35 35 34 33 32 31 30 28 27 30 32 32 32 33 35 35 35 35 34 33 33 33 31 30 29 28 27 27 26 26 27 27 27 29 29
35 35 35 35 36 36 36 36 35 35 34 33 33 32 31 30 28 28 29 31 32 33 34 35 36 36 35 35 35 34 33 31 30 29 28 28 27 27 27 27 28 29 29
35 35 34 34 34 34 34 34 35 35 34 34 34 33 32 30 29 28 28 30 32 33 35 35 36 36 35 36 36 36 35 33 31 31 30 29 28 27 28 28 28 28 29
35 34 33 32 32 32 33 33 33 34 34 34 34 33 33 31 31 30 29 29 30 31 33 35 36 37 36 36 36 36 35 34 32 31 31 30 28 27 27 28 27 28 29
36 36 34 33 32 32 33 33 32 32 33 34 34 34 34 33 32 32 31 30 29 30 32 34 35 36 37 37 37 36 36 35 33 32 31 30 28 27 27 27 26 26 27
38 38 37 36 35 34 33 33 33 33 33 33 34 34 35 35 35 34 33 31 31 32 32 34 35 37 37 38 38 37 36 35 34 33 32 30 29 27 26 26 25 25 25
39 40 40 40 39 37 36 35 34 34 34 34 34 34 35 36 36 36 35 33 31 32 33 33 35 38 38 38 38 38 37 37 36 34 32 31 29 27 26 26 25 25 24
40 41 41 41 41 40 39 39 38 37 36 36 35 35 36 36 37 37 38 36 34 33 34 34 35 37 39 38 38 39 39 38 36 35 33 31 29 27 26 25 24 23 23
41 41 41 41 42 42 41 41 41 41 40 39 39 38 38 38 38 39 39 40 38 36 33 34 36 37 39 39 40 40 39 39 37 36 35 32 30 28 26 24 23 22 21
41 41 41 42 42 42 43 43 43 44 44 43 43 43 42 42 41 41 41 41 41 39 38 36 36 38 40 41 42 42 41 40 39 38 36 34 31 29 27 25 23 21 20
41 41 41 41 41 42 43 44 45 46 47 47 47 47 47 47 47 46 45 43 43 42 41 39 38 40 42 44 44 44 43 42 41 40 37 35 33 30 28 26 24 22 20
41 41 41 41 41 43 44 45 47 48 49 49 50 51 51 51 51 51 50 49 47 45 43 43 42 42 44 46 47 47 46 44 43 41 39 37 35 32 29 27 24 22 20
40 40 40 41 42 43 45 46 48 49 50 51 52 52 53 54 54 55 54 54 52 50 48 46 46 44 46 48 49 48 47 46 44 43 42 40 37 34 31 28 25 22 21
40 40 41 42 43 44 45 46 47 48 50 51 52 53 54 55 56 57 57 58 57 55 53 50 49 48 47 49 49 50 50 48 47 46 44 42 39 36 33 29 26 23 21
40 41 42 42 42 43 44 45 46 47 48 49 50 51 53 54 55 58 59 61 61 60 58 56 54 53 50 50 50 51 52 50 48 47 45 44 41 38 35 31 28 24 22
41 42 41 41 41 42 43 43 43 44 44 45 47 49 50 51 52 56 59 62 64 63 62 60 58 57 54 52 52 52 53 53 51 49 48 46 44 41 37 33 29 26 23
41 41 40 40 40 40 40 40 40 40 41 41 43 45 46 48 49 52 57 60 63 65 64 63 62 60 59 55 54 53 53 53 53 52 50 48 46 43 40 36 32 28 25
40 40 39 39 39 38 38 37 37 36 36 37 38 40 42 43 46 49 53 57 61 65 67 66 66 65 64 60 57 56 55 54 53 52 51 49 47 45 42 38 35 31 28
39 39 38 38 37 36 34 33 33 32 32 32 33 34 36 39 42 46 49 53 58 63 66 68 68 67 66 64 61 58 56 54 52 51 51 50 49 48 44 41 37 34 30
Wind_Direction
293 292 290 289 287 284 284 286 286 285 281 279 274 266 259 253 250 245 242 240 239 242 243 243 242 243 243 242 240 236 234 232 231 230 231 231 232 233 233 234 236 236 235
292 291 289 287 286 283 280 281 282 281 281 281 282 276 269 263 256 245 239 238 237 238 240 242 240 240 240 239 237 236 233 233 232 232 232 232 233 233 233 233 232 233 233
291 289 288 286 284 282 279 279 278 277 278 278 279 277 273 267 260 248 240 238 235 236 238 240 240 239 238 236 235 234 233 233 233 233 232 232 233 233 233 233 231 230 230
290 288 287 285 283 281 279 278 277 276 276 277 276 275 269 262 259 250 242 238 236 235 236 238 238 235 234 234 233 233 232 232 232 232 232 232 233 232 231 231 231 230 229
288 287 286 284 282 280 278 278 276 275 275 274 272 272 268 260 257 251 243 239 236 235 235 235 235 232 232 231 231 232 230 230 232 231 231 232 232 231 231 231 231 230 229
287 286 285 284 282 279 278 276 273 273 273 272 270 272 269 260 256 250 244 240 238 236 235 234 234 233 231 230 230 230 228 229 229 229 230 230 231 231 232 231 231 230 230
285 284 283 282 280 279 277 276 274 273 273 271 270 269 268 263 254 247 245 242 239 237 235 233 232 231 229 229 228 227 226 226 226 226 228 229 231 231 232 232 231 231 231
284 283 281 280 278 277 276 274 273 272 271 269 267 266 266 263 256 248 245 242 238 236 235 233 231 229 229 228 226 225 225 223 223 225 226 227 229 230 231 231 231 231 232
285 282 280 278 277 275 274 273 271 270 268 268 266 264 264 260 255 251 247 242 239 237 235 233 231 229 229 228 224 224 223 223 223 223 224 226 227 229 231 231 231 231 233
288 285 283 280 278 275 273 271 269 267 265 264 262 261 259 256 254 252 248 244 241 239 235 234 231 228 228 225 222 221 221 221 222 222 223 224 226 228 230 229 230 231 232
291 288 285 282 279 276 274 271 269 267 265 263 260 258 256 254 253 253 249 245 242 240 236 232 229 227 225 223 220 219 217 218 220 220 221 223 224 226 227 226 227 230 231
293 290 287 284 281 277 275 273 270 267 265 262 259 255 253 251 249 249 248 245 241 237 234 231 228 225 222 222 219 218 217 218 218 218 219 220 221 222 222 223 225 228 230
294 291 288 285 282 279 276 273 271 268 265 262 258 254 251 248 246 246 245 244 241 237 234 230 226 222 219 219 217 216 215 217 217 216 216 216 217 218 219 220 223 225 226
294 291 289 286 282 279 275 273 272 269 265 261 258 254 250 247 245 244 241 240 240 237 233 229 224 220 216 214 214 214 215 215 215 214 213 212 213 215 217 219 221 222 223
293 290 288 285 283 280 276 274 271 269 266 262 258 255 252 248 245 242 239 237 237 235 231 227 223 220 215 212 211 213 213 213 212 211 210 210 211 213 214 215 217 219 221
294 290 287 284 282 280 278 275 271 268 265 263 259 256 253 249 246 243 239 236 234 233 230 227 223 219 214 211 211 212 212 212 211 210 209 208 209 209 210 211 213 216 218
295 291 287 284 282 280 278 276 273 269 266 263 260 257 253 250 247 243 240 237 234 232 229 226 223 219 213 211 211 212 212 213 211 210 209 207 207 208 209 209 212 215 219
297 293 289 286 283 281 279 277 274 271 268 265 261 257 254 251 247 244 241 238 234 232 229 225 222 219 214 211 211 212 212 212 211 210 209 207 207 207 209 210 213 217 220
300 296 293 289 286 284 282 279 276 273 270 266 262 258 254 251 247 243 240 238 234 231 228 225 222 219 215 213 212 212 212 212 211 210 209 208 208 208 209 211 214 217 221
302 299 296 293 290 287 284 281 278 274 271 268 264 260 255 251 247 243 239 236 234 231 228 224 220 217 215 214 213 213 212 212 212 211 210 209 209 209 210 212 215 218 223
305 302 300 297 294 291 288 284 280 276 273 269 265 260 256 251 246 243 239 235 232 230 227 224 220 217 216 214 213 213 212 212 212 211 211 210 210 211 212 214 216 219 224
308 306 304 301 298 295 292 288 283 279 275 270 266 262 257 252 247 242 237 233 230 228 227 225 221 218 216 215 214 213 212 212 212 211 212 212 212 212 213 215 217 220 224
312 310 307 305 302 299 296 292 288 283 277 272 267 262 257 252 246 240 235 231 228 226 225 224 222 219 216 215 215 213 211 212 212 212 213 213 213 214 215 216 218 222 225
315 313 311 309 306 303 299 296 292 287 281 275 268 262 256 250 244 237 231 228 225 223 222 221 220 218 215 214 213 213 212 212 212 212 214 214 214 215 216 218 220 223 227
318 317 315 313 310 306 303 299 295 290 284 277 270 263 255 247 240 234 228 224 222 220 219 219 218 216 214 212 213 212 211 211 212 213 214 215 215 216 218 219 222 224 227
322 320 318 317 314 311 308 304 299 294 287 280 272 263 253 244 235 229 224 221 219 217 216 216 216 215 214 212 212 212 212 211 211 212 213 215 216 217 219 220 222 224 226
Height
5861 5859 5857 5855 5853 5851 5850 5849 5848 5847 5846 5846 5846 5846 5846 5848 5850 5852 5855 5859 5862 5864 5866 5869 5871 5874 5876 5878 5880 5883 5885 5887 5889 5891 5893 5896 5898 5900 5902 5904 5906 5908 5909
5853 5851 5849 5847 5845 5844 5843 5842 5841 5841 5839 5839 5839 5839 5839 5840 5842 5844 5847 5850 5854 5857 5860 5863 5866 5868 5871 5873 5875 5878 5881 5883 5885 5887 5889 5892 5894 5897 5899 5901 5903 5905 5907
5845 5844 5842 5840 5838 5836 5835 5834 5834 5834 5833 5832 5832 5832 5832 5833 5835 5837 5840 5843 5846 5850 5853 5856 5859 5862 5865 5868 5870 5873 5876 5878 5881 5883 5885 5888 5890 5893 5895 5898 5900 5902 5904
5836 5835 5833 5832 5830 5829 5828 5827 5826 5826 5826 5825 5825 5824 5825 5826 5827 5829 5832 5836 5839 5843 5846 5849 5853 5856 5859 5862 5865 5868 5871 5873 5876 5878 5880 5883 5886 5888 5891 5894 5896 5899 5901
5828 5826 5824 5823 5821 5820 5819 5819 5818 5818 5818 5817 5817 5817 5817 5818 5819 5822 5825 5828 5831 5835 5839 5842 5846 5849 5853 5856 5859 5863 5866 5868 5871 5873 5876 5878 5881 5883 5886 5889 5892 5895 5897
5820 5818 5816 5814 5813 5812 5811 5810 5810 5810 5810 5810 5810 5810 5810 5810 5812 5814 5818 5821 5824 5828 5831 5835 5839 5842 5846 5850 5853 5857 5860 5863 5866 5868 5871 5873 5876 5879 5881 5884 5887 5890 5892
5811 5809 5807 5805 5804 5803 5803 5802 5802 5802 5802 5801 5802 5802 5803 5803 5805 5807 5810 5813 5817 5820 5824 5827 5831 5835 5839 5843 5846 5850 5854 5857 5860 5863 5865 5868 5871 5873 5876 5878 5881 5884 5887
5802 5800 5798 5796 5795 5794 5794 5793 5793 5793 5793 5793 5794 5794 5795 5797 5797 5800 5802 5805 5809 5812 5816 5820 5824 5828 5832 5836 5840 5844 5847 5851 5854 5857 5860 5862 5865 5868 5870 5873 5876 5879 5882
5792 5790 5788 5787 5786 5785 5784 5783 5783 5784 5784 5784 5785 5786 5787 5788 5790 5792 5795 5797 5800 5804 5808 5812 5816 5820 5824 5828 5833 5837 5841 5845 5848 5851 5854 5857 5860 5862 5865 5867 5870 5873 5876
5781 5779 5778 5777 5775 5774 5774 5773 5773 5773 5774 5775 5776 5777 5778 5780 5782 5784 5787 5789 5792 5795 5800 5804 5808 5812 5816 5821 5825 5830 5834 5838 5842 5845 5848 5851 5854 5856 5859 5862 5865 5868 5870
5771 5769 5768 5767 5765 5764 5763 5763 5763 5763 5763 5765 5766 5768 5769 5771 5773 5776 5779 5781 5784 5787 5791 5795 5799 5804 5808 5813 5818 5822 5827 5832 5835 5839 5842 5845 5848 5851 5854 5856 5859 5862 5865
5761 5759 5757 5756 5755 5754 5753 5752 5752 5753 5753 5754 5756 5758 5760 5762 5764 5767 5770 5773 5776 5779 5782 5786 5791 5795 5800 5805 5810 5815 5820 5825 5829 5833 5836 5840 5843 5846 5848 5851 5854 5857 5859
5751 5748 5746 5745 5744 5743 5742 5741 5741 5742 5743 5744 5745 5747 5749 5752 5755 5758 5761 5764 5767 5771 5774 5778 5783 5787 5792 5797 5802 5807 5813 5818 5822 5826 5830 5834 5837 5840 5843 5846 5849 5852 5855
5741 5738 5735 5733 5732 5731 5731 5731 5731 5731 5732 5733 5734 5736 5739 5741 5744 5747 5751 5755 5758 5762 5765 5770 5774 5779 5784 5789 5794 5800 5805 5810 5816 5820 5824 5828 5832 5835 5839 5842 5845 5847 5850
5731 5727 5724 5721 5720 5719 5718 5718 5719 5719 5720 5722 5723 5725 5728 5730 5733 5737 5740 5744 5749 5752 5757 5761 5765 5770 5776 5781 5786 5792 5797 5803 5809 5814 5819 5823 5827 5831 5834 5837 5840 5843 5845
5720 5716 5712 5709 5707 5705 5705 5704 5705 5706 5707 5709 5711 5713 5716 5719 5722 5725 5729 5734 5738 5743 5747 5752 5756 5761 5767 5773 5778 5784 5790 5796 5802 5807 5812 5817 5822 5826 5829 5833 5836 5838 5841
5708 5704 5700 5697 5694 5692 5691 5690 5690 5691 5693 5694 5697 5700 5703 5706 5710 5714 5718 5722 5727 5732 5738 5743 5747 5752 5758 5764 5771 5777 5783 5789 5795 5801 5806 5811 5816 5821 5825 5828 5831 5834 5836
5696 5691 5688 5684 5681 5679 5677 5676 5675 5675 5676 5678 5680 5683 5687 5690 5695 5700 5705 5710 5716 5721 5727 5733 5738 5743 5749 5755 5762 5769 5775 5781 5788 5794 5800 5805 5811 5815 5820 5823 5827 5829 5832
5683 5679 5675 5671 5668 5665 5663 5661 5659 5659 5659 5660 5662 5666 5669 5673 5679 5684 5690 5696 5702 5709 5715 5722 5727 5733 5740 5746 5753 5760 5767 5774 5781 5787 5793 5799 5805 5810 5814 5818 5822 5825 5827
5672 5667 5662 5658 5654 5651 5648 5645 5642 5641 5641 5641 5643 5646 5649 5654 5660 5666 5673 5681 5688 5695 5703 5710 5716 5722 5729 5736 5743 5751 5758 5766 5773 5780 5786 5793 5799 5804 5809 5813 5816 5819 5822
5661 5655 5650 5645 5640 5636 5632 5628 5625 5623 5622 5621 5622 5624 5628 5633 5639 5646 5654 5663 5671 5680 5688 5696 5704 5711 5718 5725 5733 5741 5749 5757 5764 5772 5779 5786 5792 5797 5802 5807 5811 5814 5817
5650 5643 5637 5632 5626 5620 5615 5611 5607 5605 5603 5602 5602 5603 5606 5611 5617 5625 5633 5643 5653 5663 5673 5682 5691 5699 5707 5715 5723 5731 5740 5748 5757 5765 5771 5778 5784 5791 5796 5801 5805 5809 5812
5639 5632 5625 5618 5612 5606 5600 5595 5590 5587 5584 5582 5582 5583 5585 5590 5595 5603 5612 5622 5633 5644 5656 5667 5676 5687 5696 5704 5713 5721 5729 5738 5747 5755 5762 5769 5776 5783 5789 5794 5799 5803 5806
5628 5620 5613 5606 5599 5592 5586 5580 5575 5570 5567 5565 5564 5564 5566 5570 5575 5583 5591 5602 5613 5626 5639 5651 5663 5672 5682 5691 5701 5710 5719 5727 5736 5745 5753 5761 5768 5775 5782 5787 5792 5796 5800
5617 5609 5602 5594 5587 5580 5573 5567 5561 5556 5552 5549 5547 5547 5548 5552 5557 5564 5573 5585 5596 5608 5619 5632 5645 5656 5668 5678 5688 5697 5707 5716 5726 5735 5744 5753 5760 5767 5773 5779 5785 5790 5793
5608 5599 5592 5584 5576 5569 5562 5555 5548 5543 5539 5535 5532 5531 5533 5536 5541 5547 5557 5568 5579 5591 5603 5616 5629 5641 5654 5665 5676 5687 5697 5707 5716 5726 5735 5743 5751 5758 5765 5772 5777 5782 5787